This demonstration page uses our WeatherBlox Daily Observations layout. Learn more.

Left ArrowRight Arrow

47.50024, -111.30081

Hourly Observations for April 8, 2019

Temp ( °F °C ) Dew Point ( °F °C ) Humidity (%) Winds ( mph kmh ) Pressure ( in mb ) Visibility ( mi km ) Precip ( " mm )
12:53 am 00:53 Clear 44 6.7 34 1.1 68 68 WSW 10 17 29.97 1015 10 16 0.00 0.00
1:53 am 01:53 Mostly Clear 44 6.7 32 0 63 63 WSW 17 28 29.98 1015 10 16 0.00 0.00
2:53 am 02:53 Clear 43 6.1 34 1.1 71 71 SW 20 31 29.97 1015 10 16 0.00 0.00
3:53 am 03:53 Cloudy 43 6.1 34 1.1 71 71 W 13 20 30.00 1016 10 16 0.00 0.00
4:53 am 04:53 Mostly Cloudy 41 5 34 1.1 76 76 WSW 14 22 30.02 1017 10 16 0.00 0.00
5:53 am 05:53 Clear 40 4.4 34 1.1 79 79 WNW 8 13 30.05 1018 10 16 0.00 0.00
6:53 am 06:53 Sunny 39 3.9 33 0.6 79 79 SW 12 19 30.06 1018 10 16 0.00 0.00
7:53 am 07:53 Sunny 41 5 34 1.1 76 76 SW 8 13 30.09 1019 10 16 0.00 0.00
8:53 am 08:53 Cloudy 43 6.1 35 1.7 74 74 WSW 6 9 30.09 1019 10 16 0.00 0.00
9:53 am 09:53 Cloudy 46 7.8 34 1.1 63 63 SW 12 19 30.09 1019 10 16 0.00 0.00
10:53 am 10:53 Cloudy 49 9.4 33 0.6 55 55 W 7 11 30.09 1019 10 16 0.00 0.00
11:53 am 11:53 Sunny 52 11.1 32 0 47 47 W 6 9 30.08 1019 10 16 0.00 0.00
12:53 pm 12:53 Sunny 53 11.7 30 -1.1 41 41 SW 6 9 30.06 1018 10 16 0.00 0.00
1:53 pm 13:53 Partly Cloudy 55 12.8 30 -1.1 38 38 SW 9 15 30.04 1017 10 16 0.00 0.00
2:53 pm 14:53 Mostly Sunny 57 13.9 26 -3.3 30 30 VRB 5 7 30.01 1016 10 16 0.00 0.00
3:53 pm 15:53 Mostly Cloudy 57 13.9 32 0 39 39 SW 9 15 29.99 1016 10 16 0.00 0.00
4:53 pm 16:53 Cloudy 57 13.9 32 0 39 39 WSW 8 13 29.99 1016 10 16 0.00 0.00
5:53 pm 17:53 Cloudy 56 13.3 32 0 40 40 SW 6 9 29.99 1016 10 16 0.00 0.00
6:53 pm 18:53 Mostly Cloudy 55 12.8 34 1.1 45 45 SSW 8 13 29.98 1015 10 16 0.00 0.00
7:53 pm 19:53 Mostly Cloudy 52 11.1 37 2.8 57 57 S 10 17 29.97 1015 10 16 0.00 0.00
8:53 pm 20:53 Cloudy 50 10 38 3.3 63 63 S 9 15 29.97 1015 10 16 0.00 0.00
9:53 pm 21:53 Mostly Cloudy 48 8.9 39 3.9 71 71 SSE 9 15 29.96 1015 10 16 0.00 0.00
10:53 pm 22:53 Cloudy 48 8.9 40 4.4 74 74 SSW 12 19 29.93 1014 10 16 0.00 0.00
11:53 pm 23:53 Cloudy 47 8.3 41 5 80 80 SSW 9 15 29.90 1013 10 16 0.00 0.00

Powered by AerisWeather